| time (UTC) | temp C | wind direction | speed KPH | gust KPH | rain 1hr cm | rain 24hr cm | rain mn cm | humidity % | barometer mb |
| 20260504110345 | 10 | 208 | 6.4 | 8.0 | 0.00 | 0.00 | 0.00 | 56 | 1010.3 |
| 20260504100303 | 9 | 229 | 4.8 | 6.4 | 0.00 | 0.00 | 0.00 | 58 | 1010.1 |
| 20260504081656 | 10 | 221 | 4.8 | 11.3 | 0.00 | 0.00 | 0.00 | 54 | 1010.8 |
| 20260504081152 | 10 | 170 | 4.8 | 11.3 | 0.00 | 0.00 | 0.00 | 53 | 1010.8 |
| 20260504080649 | 10 | 142 | 4.8 | 16.1 | 0.00 | 0.00 | 0.00 | 53 | 1010.8 |
| 20260504080145 | 10 | 218 | 6.4 | 12.9 | 0.00 | 0.00 | 0.00 | 54 | 1010.9 |
| 20260504070113 | 10 | 258 | 12.9 | 19.3 | 0.00 | 0.00 | 0.00 | 53 | 1011.8 |
| 20260504050502 | 10 | 195 | 4.8 | 6.4 | 0.00 | 0.00 | 0.00 | 58 | 1013.1 |
| 20260504045959 | 10 | 228 | 3.2 | 8.0 | 0.00 | 0.00 | 0.00 | 58 | 1013.1 |
| 20260504045455 | 10 | 180 | 3.2 | 4.8 | 0.00 | 0.00 | 0.00 | 58 | 1013.1 |
| 20260504044951 | 10 | 212 | 1.6 | 1.6 | 0.00 | 0.00 | 0.00 | 58 | 1013.0 |
| 20260504044448 | 10 | 144 | 4.8 | 6.4 | 0.00 | 0.00 | 0.00 | 58 | 1013.1 |
| 20260504043946 | 10 | 215 | 1.6 | 11.3 | 0.00 | 0.00 | 0.00 | 57 | 1013.1 |
| 20260504043442 | 10 | 189 | 4.8 | 6.4 | 0.00 | 0.00 | 0.00 | 57 | 1013.2 |
| 20260504042940 | 10 | 167 | 3.2 | 6.4 | 0.00 | 0.00 | 0.00 | 57 | 1013.3 |
| 20260504042436 | 10 | 216 | 8.0 | 8.0 | 0.00 | 0.00 | 0.00 | 56 | 1013.4 |
| 20260504041933 | 10 | 196 | 1.6 | 4.8 | 0.00 | 0.00 | 0.00 | 57 | 1013.3 |
| 20260504041429 | 10 | 191 | 1.6 | 4.8 | 0.00 | 0.00 | 0.00 | 56 | 1013.2 |
| 20260504040925 | 10 | 214 | 3.2 | 6.4 | 0.00 | 0.00 | 0.00 | 56 | 1013.4 |
| 20260504040424 | 10 | 200 | 1.6 | 1.6 | 0.00 | 0.00 | 0.00 | 56 | 1013.4 |
| 20260504035919 | 10 | 203 | 3.2 | 4.8 | 0.00 | 0.00 | 0.00 | 55 | 1013.4 |
| 20260504035417 | 10 | 222 | 4.8 | 4.8 | 0.00 | 0.00 | 0.00 | 55 | 1013.5 |
| 20260504034914 | 10 | 195 | 3.2 | 1.6 | 0.00 | 0.00 | 0.00 | 55 | 1013.4 |
| 20260504034412 | 10 | 213 | 1.6 | 1.6 | 0.00 | 0.00 | 0.00 | 56 | 1013.4 |
| 20260504033908 | 10 | 214 | 3.2 | 1.6 | 0.00 | 0.00 | 0.00 | 54 | 1013.5 |
| 20260504033406 | 10 | 226 | 3.2 | 6.4 | 0.00 | 0.00 | 0.00 | 54 | 1013.7 |
| 20260504032902 | 10 | 204 | 4.8 | 6.4 | 0.00 | 0.00 | 0.00 | 54 | 1013.7 |
| 20260504032359 | 10 | 178 | 1.6 | 1.6 | 0.00 | 0.00 | 0.00 | 54 | 1013.8 |
| 20260504031855 | 10 | 212 | 4.8 | 8.0 | 0.00 | 0.00 | 0.00 | 53 | 1013.7 |
| 20260504031353 | 10 | 221 | 4.8 | 6.4 | 0.00 | 0.00 | 0.00 | 54 | 1013.8 |
| 20260504030849 | 10 | 221 | 4.8 | 8.0 | 0.00 | 0.00 | 0.00 | 52 | 1013.9 |
| 20260504030347 | 10 | 289 | 0.0 | 0.0 | 0.00 | 0.00 | 0.00 | 53 | 1014.2 |
| 20260504025842 | 10 | 297 | 1.6 | 11.3 | 0.00 | 0.00 | 0.00 | 52 | 1014.1 |
| 20260504025340 | 10 | 213 | 3.2 | 6.4 | 0.00 | 0.00 | 0.00 | 52 | 1014.0 |
| 20260504024836 | 10 | 245 | 3.2 | 11.3 | 0.00 | 0.00 | 0.00 | 52 | 1014.0 |
| 20260504024333 | 10 | 310 | 4.8 | 11.3 | 0.00 | 0.00 | 0.00 | 51 | 1014.3 |
| 20260504023829 | 10 | 241 | 6.4 | 11.3 | 0.00 | 0.00 | 0.00 | 51 | 1014.1 |
| 20260504023327 | 10 | 179 | 3.2 | 6.4 | 0.00 | 0.00 | 0.00 | 51 | 1014.3 |
| 20260504022822 | 10 | 226 | 6.4 | 8.0 | 0.00 | 0.00 | 0.00 | 51 | 1014.1 |
| 20260504022319 | 9 | 223 | 4.8 | 6.4 | 0.00 | 0.00 | 0.00 | 52 | 1014.1 |
| 20260504021816 | 9 | 211 | 3.2 | 4.8 | 0.00 | 0.00 | 0.00 | 52 | 1013.8 |
| 20260504021314 | 9 | 189 | 1.6 | 1.6 | 0.00 | 0.00 | 0.00 | 51 | 1013.8 |
| 20260504020810 | 9 | 189 | 1.6 | 1.6 | 0.00 | 0.00 | 0.00 | 51 | 1013.7 |
| 20260504020307 | 10 | 188 | 1.6 | 1.6 | 0.00 | 0.00 | 0.00 | 51 | 1013.8 |
| 20260504015802 | 10 | 189 | 1.6 | 1.6 | 0.00 | 0.00 | 0.00 | 51 | 1013.7 |
| 20260504015259 | 10 | 189 | 1.6 | 1.6 | 0.00 | 0.00 | 0.00 | 49 | 1013.7 |
| 20260504014755 | 10 | 190 | 1.6 | 1.6 | 0.00 | 0.00 | 0.00 | 49 | 1013.5 |
| 20260504014251 | 10 | 187 | 0.0 | 1.6 | 0.00 | 0.00 | 0.00 | 48 | 1013.5 |
| 20260504013749 | 10 | 183 | 1.6 | 1.6 | 0.00 | 0.00 | 0.00 | 48 | 1013.4 |
| 20260504013247 | 10 | 183 | 3.2 | 1.6 | 0.00 | 0.00 | 0.00 | 48 | 1013.3 |
| 20260504012743 | 10 | 186 | 0.0 | 1.6 | 0.00 | 0.00 | 0.00 | 47 | 1013.3 |
| 20260504012241 | 11 | 198 | 1.6 | 1.6 | 0.00 | 0.00 | 0.00 | 46 | 1013.4 |
| 20260504011737 | 11 | 197 | 1.6 | 1.6 | 0.00 | 0.00 | 0.00 | 44 | 1013.5 |
| 20260504011235 | 11 | 253 | 1.6 | 4.8 | 0.00 | 0.00 | 0.00 | 45 | 1013.2 |
| 20260504010731 | 11 | 215 | 3.2 | 4.8 | 0.00 | 0.00 | 0.00 | 44 | 1013.4 |
| 20260504010226 | 11 | 161 | 1.6 | 1.6 | 0.00 | 0.00 | 0.00 | 43 | 1013.4 |
| 20260504005723 | 12 | 208 | 4.8 | 4.8 | 0.00 | 0.00 | 0.00 | 41 | 1013.4 |
| 20260504005220 | 12 | 213 | 4.8 | 8.0 | 0.00 | 0.00 | 0.00 | 41 | 1013.5 |
| 20260504004718 | 12 | 212 | 3.2 | 6.4 | 0.00 | 0.00 | 0.00 | 41 | 1013.4 |
| 20260504004215 | 12 | 210 | 3.2 | 4.8 | 0.00 | 0.00 | 0.00 | 40 | 1013.4 |
| 20260504003712 | 12 | 172 | 0.0 | 4.8 | 0.00 | 0.00 | 0.00 | 41 | 1013.3 |
| 20260504003208 | 12 | 223 | 6.4 | 8.0 | 0.00 | 0.00 | 0.00 | 39 | 1013.4 |
| 20260504002705 | 12 | 220 | 4.8 | 4.8 | 0.00 | 0.00 | 0.00 | 40 | 1013.4 |
| 20260504002202 | 12 | 244 | 1.6 | 6.4 | 0.00 | 0.00 | 0.00 | 40 | 1013.4 |
| 20260504001700 | 13 | 228 | 4.8 | 8.0 | 0.00 | 0.00 | 0.00 | 39 | 1013.4 |
| 20260504001156 | 13 | 255 | 4.8 | 8.0 | 0.00 | 0.00 | 0.00 | 38 | 1013.5 |
| 20260504000653 | 13 | 239 | 3.2 | 6.4 | 0.00 | 0.00 | 0.00 | 39 | 1013.3 |
| 20260504000150 | 13 | 224 | 6.4 | 17.7 | 0.00 | 0.00 | 0.00 | 37 | 1013.5 |
| 20260503235649 | 13 | 240 | 9.7 | 17.7 | 0.00 | 0.00 | 0.00 | 37 | 1013.4 |
| 20260503235145 | 13 | 190 | 14.5 | 17.7 | 0.00 | 0.00 | 0.00 | 37 | 1013.5 |
| 20260503234643 | 13 | 267 | 4.8 | 22.5 | 0.00 | 0.00 | 0.00 | 38 | 1013.4 |
| 20260503234141 | 13 | 187 | 4.8 | 12.9 | 0.00 | 0.00 | 0.00 | 37 | 1013.4 |
| 20260503233638 | 13 | 246 | 9.7 | 22.5 | 0.00 | 0.00 | 0.00 | 36 | 1013.7 |
| 20260503233133 | 13 | 221 | 4.8 | 6.4 | 0.00 | 0.00 | 0.00 | 37 | 1013.8 |
| 20260503232630 | 13 | 202 | 8.0 | 12.9 | 0.00 | 0.00 | 0.00 | 36 | 1013.7 |
| 20260503232128 | 13 | 332 | 4.8 | 16.1 | 0.00 | 0.00 | 0.00 | 36 | 1013.4 |
| 20260503231626 | 13 | 239 | 8.0 | 19.3 | 0.00 | 0.00 | 0.00 | 37 | 1013.5 |
| 20260503231122 | 13 | 236 | 4.8 | 6.4 | 0.00 | 0.00 | 0.00 | 36 | 1013.5 |
| 20260503230619 | 13 | 278 | 12.9 | 16.1 | 0.00 | 0.00 | 0.00 | 35 | 1013.5 |
| 20260503230116 | 13 | 219 | 6.4 | 11.3 | 0.00 | 0.00 | 0.00 | 37 | 1013.5 |
| 20260503225614 | 13 | 187 | 8.0 | 12.9 | 0.00 | 0.00 | 0.00 | 37 | 1013.5 |
| 20260503225113 | 13 | 224 | 8.0 | 25.7 | 0.00 | 0.00 | 0.00 | 36 | 1013.7 |
| 20260503224611 | 13 | 248 | 6.4 | 8.0 | 0.00 | 0.00 | 0.00 | 36 | 1013.8 |
| 20260503224109 | 14 | 272 | 4.8 | 6.4 | 0.00 | 0.00 | 0.00 | 37 | 1013.7 |
| 20260503223606 | 14 | 246 | 4.8 | 19.3 | 0.00 | 0.00 | 0.00 | 36 | 1013.9 |
| 20260503223102 | 14 | 257 | 6.4 | 16.1 | 0.00 | 0.00 | 0.00 | 35 | 1013.8 |
| 20260503222600 | 14 | 304 | 9.7 | 16.1 | 0.00 | 0.00 | 0.00 | 34 | 1013.8 |
| 20260503222058 | 14 | 234 | 9.7 | 17.7 | 0.00 | 0.00 | 0.00 | 34 | 1013.7 |
| 20260503221555 | 14 | 251 | 4.8 | 8.0 | 0.00 | 0.00 | 0.00 | 36 | 1013.8 |
| 20260503221053 | 14 | 177 | 4.8 | 24.1 | 0.00 | 0.00 | 0.00 | 34 | 1013.9 |
| 20260503220549 | 14 | 252 | 8.0 | 16.1 | 0.00 | 0.00 | 0.00 | 36 | 1014.0 |
| 20260503220046 | 14 | 239 | 9.7 | 17.7 | 0.00 | 0.00 | 0.00 | 36 | 1013.9 |
| 20260503215543 | 14 | 224 | 19.3 | 29.0 | 0.00 | 0.00 | 0.00 | 34 | 1013.8 |
| 20260503215040 | 15 | 244 | 8.0 | 29.0 | 0.00 | 0.00 | 0.00 | 35 | 1013.8 |
| 20260503214538 | 15 | 242 | 20.9 | 30.6 | 0.00 | 0.00 | 0.00 | 34 | 1014.0 |
| 20260503214034 | 15 | 291 | 8.0 | 17.7 | 0.00 | 0.00 | 0.00 | 34 | 1013.9 |
| 20260503213533 | 15 | 284 | 4.8 | 6.4 | 0.00 | 0.00 | 0.00 | 34 | 1013.8 |
| 20260503213029 | 15 | 290 | 12.9 | 24.1 | 0.00 | 0.00 | 0.00 | 35 | 1013.9 |
| 20260503212527 | 15 | 224 | 8.0 | 24.1 | 0.00 | 0.00 | 0.00 | 35 | 1013.8 |
| 20260503212024 | 15 | 260 | 9.7 | 19.3 | 0.00 | 0.00 | 0.00 | 34 | 1013.9 |
| 20260503211521 | 14 | 231 | 9.7 | 19.3 | 0.00 | 0.00 | 0.00 | 35 | 1014.0 |
| 20260503211016 | 15 | 262 | 4.8 | 25.7 | 0.00 | 0.00 | 0.00 | 36 | 1013.9 |
| 20260503210514 | 15 | 268 | 9.7 | 22.5 | 0.00 | 0.00 | 0.00 | 33 | 1013.8 |
| 20260503210009 | 15 | 266 | 16.1 | 22.5 | 0.00 | 0.00 | 0.00 | 33 | 1013.8 |
| 20260503205506 | 15 | 239 | 4.8 | 25.7 | 0.00 | 0.00 | 0.00 | 33 | 1013.5 |
| 20260503205002 | 15 | 287 | 14.5 | 29.0 | 0.00 | 0.00 | 0.00 | 33 | 1013.8 |
| 20260503204459 | 15 | 264 | 6.4 | 22.5 | 0.00 | 0.00 | 0.00 | 35 | 1013.9 |
| 20260503203956 | 15 | 280 | 4.8 | 22.5 | 0.00 | 0.00 | 0.00 | 35 | 1013.9 |
| 20260503203454 | 15 | 240 | 6.4 | 25.7 | 0.00 | 0.00 | 0.00 | 35 | 1014.1 |
| 20260503202950 | 15 | 216 | 17.7 | 24.1 | 0.00 | 0.00 | 0.00 | 34 | 1014.2 |
| 20260503202448 | 15 | 242 | 14.5 | 29.0 | 0.00 | 0.00 | 0.00 | 32 | 1014.2 |
| 20260503201947 | 15 | 241 | 11.3 | 17.7 | 0.00 | 0.00 | 0.00 | 33 | 1014.1 |
| 20260503201444 | 15 | 269 | 12.9 | 19.3 | 0.00 | 0.00 | 0.00 | 33 | 1014.3 |
| 20260503200941 | 14 | 261 | 14.5 | 19.3 | 0.00 | 0.00 | 0.00 | 33 | 1014.1 |
| 20260503200438 | 14 | 290 | 4.8 | 16.1 | 0.00 | 0.00 | 0.00 | 34 | 1014.3 |
| 20260503195934 | 15 | 278 | 6.4 | 25.7 | 0.00 | 0.00 | 0.00 | 36 | 1014.4 |
| 20260503195432 | 15 | 273 | 8.0 | 22.5 | 0.00 | 0.00 | 0.00 | 35 | 1014.6 |
| 20260503194928 | 15 | 273 | 8.0 | 22.5 | 0.00 | 0.00 | 0.00 | 35 | 1014.6 |
| 20260503194425 | 16 | 290 | 9.7 | 24.1 | 0.00 | 0.00 | 0.00 | 33 | 1014.6 |
| 20260503193920 | 15 | 215 | 14.5 | 16.1 | 0.00 | 0.00 | 0.00 | 33 | 1014.5 |
| 20260503193416 | 15 | 278 | 4.8 | 16.1 | 0.00 | 0.00 | 0.00 | 34 | 1014.6 |
| 20260503192912 | 15 | 270 | 9.7 | 16.1 | 0.00 | 0.00 | 0.00 | 34 | 1014.8 |
| 20260503192409 | 15 | 270 | 9.7 | 16.1 | 0.00 | 0.00 | 0.00 | 34 | 1014.8 |
| 20260503191904 | 15 | 262 | 8.0 | 16.1 | 0.00 | 0.00 | 0.00 | 36 | 1014.9 |
| 20260503191402 | 14 | 159 | 9.7 | 12.9 | 0.00 | 0.00 | 0.00 | 34 | 1015.0 |
| 20260503190858 | 15 | 288 | 8.0 | 29.0 | 0.00 | 0.00 | 0.00 | 34 | 1015.2 |
| 20260503190356 | 15 | 288 | 8.0 | 29.0 | 0.00 | 0.00 | 0.00 | 34 | 1015.2 |
| 20260503185852 | 15 | 234 | 24.1 | 29.0 | 0.00 | 0.00 | 0.00 | 31 | 1015.2 |
| 20260503185349 | 15 | 250 | 4.8 | 12.9 | 0.00 | 0.00 | 0.00 | 33 | 1015.2 |
| 20260503184848 | 15 | 266 | 9.7 | 29.0 | 0.00 | 0.00 | 0.00 | 35 | 1015.4 |
| 20260503184345 | 15 | 266 | 9.7 | 29.0 | 0.00 | 0.00 | 0.00 | 35 | 1015.4 |
| 20260503183840 | 15 | 253 | 6.4 | 19.3 | 0.00 | 0.00 | 0.00 | 37 | 1015.4 |
| 20260503183338 | 15 | 325 | 9.7 | 17.7 | 0.00 | 0.00 | 0.00 | 34 | 1015.5 |
| 20260503182835 | 15 | 290 | 9.7 | 16.1 | 0.00 | 0.00 | 0.00 | 31 | 1015.4 |
| 20260503182334 | 14 | 263 | 4.8 | 12.9 | 0.00 | 0.00 | 0.00 | 35 | 1015.6 |
| 20260503181831 | 15 | 248 | 11.3 | 25.7 | 0.00 | 0.00 | 0.00 | 35 | 1015.5 |
| 20260503181328 | 15 | 248 | 11.3 | 25.7 | 0.00 | 0.00 | 0.00 | 35 | 1015.5 |
| 20260503180824 | 15 | 250 | 4.8 | 16.1 | 0.00 | 0.00 | 0.00 | 34 | 1015.5 |
| 20260503180323 | 15 | 240 | 17.7 | 25.7 | 0.00 | 0.00 | 0.00 | 32 | 1015.6 |
| 20260503175818 | 15 | 240 | 17.7 | 25.7 | 0.00 | 0.00 | 0.00 | 32 | 1015.6 |
| 20260503175317 | 13 | 257 | 4.8 | 11.3 | 0.00 | 0.00 | 0.00 | 36 | 1015.8 |
| 20260503174812 | 14 | 331 | 24.1 | 33.8 | 0.00 | 0.00 | 0.00 | 34 | 1015.8 |
| 20260503174311 | 13 | 237 | 12.9 | 17.7 | 0.00 | 0.00 | 0.00 | 34 | 1016.0 |
| 20260503173806 | 13 | 210 | 11.3 | 25.7 | 0.00 | 0.00 | 0.00 | 37 | 1015.8 |
| 20260503173302 | 13 | 187 | 6.4 | 24.1 | 0.00 | 0.00 | 0.00 | 36 | 1015.9 |
| 20260503172759 | 14 | 282 | 14.5 | 24.1 | 0.00 | 0.00 | 0.00 | 35 | 1015.9 |
| 20260503172256 | 13 | 315 | 6.4 | 30.6 | 0.00 | 0.00 | 0.00 | 39 | 1016.1 |
| 20260503171752 | 13 | 317 | 14.5 | 29.0 | 0.00 | 0.00 | 0.00 | 37 | 1016.3 |
| 20260503171249 | 13 | 107 | 3.2 | 17.7 | 0.00 | 0.00 | 0.00 | 42 | 1016.3 |
| 20260503170746 | 13 | 232 | 11.3 | 16.1 | 0.00 | 0.00 | 0.00 | 38 | 1016.5 |
| 20260503170243 | 13 | 206 | 4.8 | 19.3 | 0.00 | 0.00 | 0.00 | 44 | 1016.6 |
| 20260503160205 | 11 | 232 | 11.3 | 19.3 | 0.00 | 0.00 | 0.00 | 39 | 1017.1 |
| 20260503150635 | 10 | 202 | 6.4 | 11.3 | 0.00 | 0.00 | 0.00 | 41 | 1017.6 |
| 20260503150131 | 10 | 202 | 6.4 | 11.3 | 0.00 | 0.00 | 0.00 | 41 | 1017.6 |
| 20260503131025 | 7 | 278 | 4.8 | 8.0 | 0.00 | 0.00 | 0.00 | 49 | 1018.0 |
| 20260503130522 | 7 | 278 | 4.8 | 8.0 | 0.00 | 0.00 | 0.00 | 49 | 1018.0 |